• In Uzbekistan
  • List of Countries
  • For 7 days
  • Water Temperature
  • Satellite Maps
  • Weather Map
  • Weather Widgets
  • user-avatar
    Login

    Hourly Weather Gjirokaster

    Today, 24 June, Sunday

    Time Temperature Precipitation Wind Pressure Humidity
    00:00 +10°C° 0 mm 2 mps 652 mmHg 81%
    01:00 +10°C° 0 mm 2 mps 651 mmHg 81%
    02:00 +9°C° 0.1 mm 2 mps 651 mmHg 81%
    03:00 +9°C° 0.1 mm 2 mps 651 mmHg 80%
    04:00 +9°C° 0.1 mm 2 mps 651 mmHg 80%
    05:00 +10°C° 0.1 mm 2 mps 651 mmHg 76%
    06:00 +13°C° 0.1 mm 2 mps 652 mmHg 72%
    07:00 +14°C° 0.1 mm 2 mps 652 mmHg 68%
    08:00 +15°C° 0.1 mm 2 mps 652 mmHg 65%
    09:00 +16°C° 0.1 mm 2 mps 653 mmHg 62%
    10:00 +18°C° 0.1 mm 2 mps 653 mmHg 59%
    11:00 +18°C° 0.3 mm 2 mps 653 mmHg 59%
    12:00 +18°C° 0.3 mm 2 mps 653 mmHg 58%
    13:00 +19°C° 0.3 mm 3 mps 653 mmHg 57%
    14:00 +18°C° 0.2 mm 3 mps 653 mmHg 58%
    15:00 +18°C° 0.2 mm 3 mps 653 mmHg 59%
    16:00 +18°C° 0.2 mm 3 mps 653 mmHg 60%
    17:00 +17°C° 0.1 mm 3 mps 652 mmHg 65%
    18:00 +14°C° 0.1 mm 3 mps 652 mmHg 70%
    19:00 +13°C° 0.1 mm 3 mps 651 mmHg 76%
    20:00 +12°C° 0 mm 3 mps 651 mmHg 77%
    21:00 +12°C° 0 mm 3 mps 652 mmHg 78%
    22:00 +11°C° 0 mm 3 mps 652 mmHg 80%
    23:00 +12°C° 0 mm 2 mps 651 mmHg 81%

    Tomorrow, 25 June, Monday

    Time Temperature Precipitation Wind Pressure Humidity
    00:00 +10°C° 0 mm 2 mps 651 mmHg 81%
    01:00 +10°C° 0 mm 2 mps 651 mmHg 82%
    02:00 +10°C° 0 mm 2 mps 651 mmHg 83%
    03:00 +10°C° 0 mm 2 mps 651 mmHg 83%
    04:00 +10°C° 0 mm 2 mps 650 mmHg 84%
    05:00 +12°C° 0 mm 2 mps 651 mmHg 81%
    06:00 +13°C° 0 mm 2 mps 651 mmHg 78%
    07:00 +14°C° 0 mm 2 mps 651 mmHg 74%
    08:00 +15°C° 0.5 mm 2 mps 652 mmHg 71%
    09:00 +16°C° 0.5 mm 1 mps 652 mmHg 67%
    10:00 +18°C° 0.5 mm 1 mps 652 mmHg 63%
    11:00 +18°C° 1.6 mm 1 mps 652 mmHg 65%
    12:00 +18°C° 1.6 mm 1 mps 652 mmHg 66%
    13:00 +18°C° 1.6 mm 1 mps 652 mmHg 68%
    14:00 +16°C° 1.5 mm 1 mps 652 mmHg 71%
    15:00 +16°C° 1.5 mm 1 mps 651 mmHg 74%
    16:00 +15°C° 1.5 mm 1 mps 651 mmHg 76%
    17:00 +15°C° 0.4 mm 2 mps 651 mmHg 79%
    18:00 +14°C° 0.4 mm 2 mps 651 mmHg 81%
    19:00 +13°C° 0.4 mm 2 mps 651 mmHg 83%
    20:00 +13°C° 0.3 mm 2 mps 651 mmHg 84%
    21:00 +12°C° 0.3 mm 2 mps 651 mmHg 86%
    22:00 +12°C° 0.3 mm 2 mps 651 mmHg 87%
    23:00 +12°C° 0.3 mm 2 mps 650 mmHg 88%

    Day after tomorrow, 26 June, Tuesday

    Time Temperature Precipitation Wind Pressure Humidity
    00:00 +10°C° 0.3 mm 2 mps 650 mmHg 88%
    01:00 +10°C° 0.3 mm 2 mps 650 mmHg 89%
    02:00 +10°C° 0.2 mm 2 mps 649 mmHg 89%
    03:00 +10°C° 0.2 mm 2 mps 649 mmHg 88%
    04:00 +9°C° 0.2 mm 2 mps 649 mmHg 88%
    05:00 +10°C° 0.3 mm 2 mps 649 mmHg 86%
    06:00 +12°C° 0.3 mm 2 mps 649 mmHg 84%
    07:00 +12°C° 0.3 mm 2 mps 649 mmHg 82%
    08:00 +13°C° 0.3 mm 2 mps 649 mmHg 77%
    09:00 +14°C° 0.3 mm 1 mps 650 mmHg 73%
    10:00 +15°C° 0.3 mm 1 mps 650 mmHg 69%
    11:00 +15°C° 0.6 mm 2 mps 650 mmHg 70%
    12:00 +15°C° 0.6 mm 2 mps 649 mmHg 72%
    13:00 +15°C° 0.6 mm 2 mps 649 mmHg 74%
    14:00 +14°C° 1.6 mm 2 mps 649 mmHg 78%
    15:00 +13°C° 1.6 mm 2 mps 648 mmHg 82%
    16:00 +13°C° 1.6 mm 2 mps 648 mmHg 87%
    17:00 +12°C° 0.9 mm 2 mps 648 mmHg 88%
    18:00 +12°C° 0.9 mm 2 mps 648 mmHg 89%
    19:00 +12°C° 0.9 mm 2 mps 648 mmHg 90%
    20:00 +12°C° 1.4 mm 2 mps 648 mmHg 90%
    21:00 +12°C° 1.4 mm 2 mps 648 mmHg 91%
    22:00 +12°C° 1.4 mm 2 mps 648 mmHg 91%
    23:00 +12°C° 0.5 mm 2 mps 648 mmHg 91%

    27 June, Wednesday

    Time Temperature Precipitation Wind Pressure Humidity
    00:00 +10°C° 0.5 mm 2 mps 647 mmHg 91%
    01:00 +10°C° 0.5 mm 2 mps 647 mmHg 90%
    02:00 +10°C° 0.2 mm 2 mps 647 mmHg 90%
    03:00 +10°C° 0.2 mm 2 mps 647 mmHg 90%
    04:00 +10°C° 0.2 mm 2 mps 647 mmHg 90%
    05:00 +12°C° 0.1 mm 2 mps 647 mmHg 87%
    06:00 +13°C° 0.1 mm 2 mps 647 mmHg 85%
    07:00 +13°C° 0.1 mm 2 mps 648 mmHg 82%
    08:00 +14°C° 0.2 mm 2 mps 648 mmHg 78%
    09:00 +15°C° 0.2 mm 1 mps 648 mmHg 73%
    10:00 +16°C° 0.2 mm 1 mps 649 mmHg 69%
    11:00 +18°C° 0.7 mm 1 mps 649 mmHg 69%
    12:00 +17°C° 0.7 mm 2 mps 649 mmHg 69%
    13:00 +17°C° 0.7 mm 2 mps 649 mmHg 70%
    14:00 +16°C° 0.7 mm 2 mps 649 mmHg 72%
    15:00 +16°C° 0.7 mm 2 mps 648 mmHg 75%
    16:00 +16°C° 0.7 mm 3 mps 648 mmHg 77%
    17:00 +14°C° 0.4 mm 3 mps 648 mmHg 79%
    18:00 +14°C° 0.4 mm 2 mps 648 mmHg 82%
    19:00 +14°C° 0.4 mm 2 mps 648 mmHg 84%
    20:00 +13°C° 0.1 mm 2 mps 648 mmHg 85%
    21:00 +12°C° 0.1 mm 2 mps 648 mmHg 86%
    22:00 +12°C° 0.1 mm 2 mps 649 mmHg 87%
    23:00 +12°C° 0 mm 2 mps 648 mmHg 87%

    28 June, Thursday

    Time Temperature Precipitation Wind Pressure Humidity
    00:00 +10°C° 0 mm 2 mps 648 mmHg 87%
    01:00 +10°C° 0 mm 2 mps 648 mmHg 88%
    02:00 +10°C° 0 mm 2 mps 648 mmHg 88%
    03:00 +9°C° 0 mm 2 mps 648 mmHg 87%
    04:00 +9°C° 0 mm 2 mps 648 mmHg 87%
    05:00 +12°C° 0 mm 2 mps 648 mmHg 83%
    06:00 +13°C° 0 mm 2 mps 649 mmHg 78%
    07:00 +15°C° 0 mm 1 mps 649 mmHg 74%
    08:00 +16°C° 0 mm 1 mps 650 mmHg 68%
    09:00 +19°C° 0 mm 1 mps 650 mmHg 63%
    10:00 +20°C° 0 mm 1 mps 651 mmHg 57%
    11:00 +20°C° 0 mm 2 mps 651 mmHg 57%
    12:00 +20°C° 0 mm 2 mps 651 mmHg 56%
    13:00 +20°C° 0 mm 3 mps 651 mmHg 55%
    14:00 +20°C° 0.1 mm 3 mps 651 mmHg 58%
    15:00 +20°C° 0.1 mm 3 mps 651 mmHg 60%
    16:00 +19°C° 0.1 mm 4 mps 651 mmHg 62%
    17:00 +18°C° 0.1 mm 3 mps 651 mmHg 68%
    18:00 +17°C° 0.1 mm 3 mps 651 mmHg 74%
    19:00 +15°C° 0.1 mm 2 mps 650 mmHg 79%
    20:00 +14°C° 0 mm 2 mps 650 mmHg 81%
    21:00 +14°C° 0 mm 1 mps 651 mmHg 82%
    22:00 +13°C° 0 mm 1 mps 651 mmHg 83%
    23:00 +12°C° 0 mm 1 mps 650 mmHg 84%

    29 June, Friday

    Time Temperature Precipitation Wind Pressure Humidity
    00:00 +12°C° 0 mm 1 mps 650 mmHg 84%
    01:00 +12°C° 0 mm 1 mps 650 mmHg 85%
    02:00 +11°C° 0 mm 1 mps 650 mmHg 85%
    03:00 +11°C° 0 mm 1 mps 650 mmHg 85%
    04:00 +11°C° 0 mm 1 mps 650 mmHg 85%
    05:00 +13°C° 0 mm 1 mps 650 mmHg 79%
    06:00 +14°C° 0 mm 1 mps 651 mmHg 73%
    07:00 +16°C° 0 mm 1 mps 651 mmHg 68%
    08:00 +18°C° 0 mm 1 mps 652 mmHg 61%
    09:00 +19°C° 0 mm 1 mps 652 mmHg 55%
    10:00 +20°C° 0 mm 2 mps 652 mmHg 49%
    11:00 +20°C° 0 mm 2 mps 653 mmHg 49%
    12:00 +21°C° 0 mm 2 mps 653 mmHg 48%
    13:00 +21°C° 0 mm 3 mps 653 mmHg 48%
    14:00 +21°C° 0 mm 2 mps 653 mmHg 51%
    15:00 +21°C° 0 mm 2 mps 652 mmHg 53%
    16:00 +21°C° 0 mm 2 mps 652 mmHg 55%
    17:00 +19°C° 0 mm 2 mps 652 mmHg 62%
    18:00 +17°C° 0 mm 2 mps 652 mmHg 69%
    19:00 +16°C° 0 mm 1 mps 652 mmHg 76%
    20:00 +15°C° 0 mm 1 mps 652 mmHg 78%
    21:00 +14°C° 0 mm 1 mps 652 mmHg 80%
    22:00 +13°C° 0 mm 1 mps 652 mmHg 82%
    23:00 +13°C° 0 mm 1 mps 652 mmHg 82%
    Show more